sat.trackr.live / text

‹ back to catalog

STARLINK-34193

NORAD 64011 · 2025-101T

PAYLOAD ACTIVE UNKNOWN

§ Identity

Operator
Country
US
Launch date
2025-05-14
Launch site
AFETR
Launch vehicle
Mass (kg)
RCS (m²)

Purposes: comms

External: N2YO · Heavens-Above · Gunter

§ Orbital elements

Epoch: 2026-05-24T17:49:35.831712Z

Period
94.27 min
Inclination
42.9982°
Eccentricity
0.0001603
Mean motion
15.27589761 rev/d
Perigee alt
481.9 km
Apogee alt
484.1 km
Semi-major
6,861.2 km
B*
5.3052e-4
RAAN
288.7080°
Arg perigee
275.4978°
Mean anomaly
84.5691°
Rev number
5,868

§ Raw data

STARLINK-341931 64011U 25101T   26144.74277583  .00014369  00000+0  53052-3 0  99912 64011  42.9982 288.7080 0001603 275.4978  84.5691 15.27589761 58684

JSON: /api/v1/satellites/64011 · /tle

For live sub-satellite position, see the globe view (requires WebGL).

§ Visibility from observer

Set your observer location to see the next 7 days of passes ≥ 10°. The values pass through the URL so the page stays shareable.

No JS? Fill the form by hand. The geolocation button needs JavaScript.